THORAD DELTA 1 DEB, 8168

Orbit data source: Space-Track

THORAD DELTA 1 DEB, 8168 is space debris in SSO originally from a launch on Fri, 15 Nov 1974 UTC launched from the Air Force Western Test Range (AFWTR). Debris objects in space refer to the collection of defunct objects orbiting the Earth. Examples of debris include non-operational satellites, rocket bodies, and fragments generated from explosions, collisions, or faulty payload assembly.

Loading next visibility...
Identifier
8168, 1974-089AJ
Orbit
SSO
Country
Flag of USUS
Related business
Manufacturer
Unknown
Mission
Spacecraft
Bus & Motor
Unknown
Mass
Unknown
Launch date (UTC)
1974-11-15 (51 years ago)
Launch vehicle
Unknown
Launch site
Air Force Western Test Range (AFWTR)
Object type
Payload
Rocket body
Debris
Shape & HBR
Unknown shape, 0.4 m
Radar Cross Section
Medium (>0.1 m² and <1 m²)

Expand to show TLE details & history
Last TLE update: 9 hours ago

TLE from 9 hours ago
0 THORAD DELTA 1 DEB
1 08168U 74089AJ  26104.13721363 -.00000029  00000-0  10915-3 0  9991
2 08168 101.9565  71.1709 0021696  45.5116  21.3140 12.52748114350524
Epoch: 2026-04-14T03:17Z
TLE epoch observation values (Epoch: 2026-04-14T03:17:35.257Z)
Latitude
64.241°
Longitude
153.56307°
Altitude
1,448.083 km
Speed
7.151 km/s
True Right ascension
03h 01m 06s
True Declination
64° 07' 05"
Sunlit
Object was in daylight at epoch
Visualization orbit readout
Latitude
Unknown
Longitude
Unknown
Altitude
Unknown
Speed
Unknown
Apparent Right ascension
Unknown
Apparent Declination
Unknown
Sunlit
N/A
Visualization observer readout
Local Sidereal Time
18:49:06
Azimuth
Unknown
Elevation
Unknown
Doppler factor
Unknown
Orbital elements
Apogee altitude
1,467.562 km
Perigee altitude
1,433.592 km
Semi-major axis
7,828.714 km
Eccentricity
0.00217
Inclination
101.9565°
RAAN
71.1709°
Arg. of periapsis
45.5116°
True anomaly
21.4046°
Mean anomaly
21.314°
Eccentric anomaly
21.35928°
Mean motion
3.13334 °/min
Orbital period
114.89 mins
BSTAR
0.00010915
Loading maneuver chart data...
Computing Atmospheric mass density...

Documentation

Showing up to 5 results
|